GW7011 Weather Reports


Display with metric or nautical units.
time (UTC)temp
F
wind
direction
speed
MPH
gust
MPH
rain 1hr
in
rain 24hr
in
rain mn
in
humidity
%
barometer
mb
20260507050927 51 242 0.0 0.0 0.00 0.00 0.00 99 1005.1
20260507050423 51 242 0.0 0.0 0.00 0.00 0.00 99 1005.2
20260507045920 51 247 0.0 0.0 0.00 0.00 0.00 99 1005.1
20260507045416 51 311 1.0 1.0 0.00 0.00 0.00 99 1005.4
20260507044914 51 311 0.0 1.0 0.00 0.00 0.00 99 1005.3
20260507044410 51 311 0.0 1.0 0.00 0.00 0.00 99 1005.1
20260507043907 51 306 0.0 1.0 0.00 0.00 0.00 99 1005.1
20260507043403 51 299 0.0 1.0 0.00 0.00 0.00 99 1005.0
20260507042859 51 299 0.0 0.0 0.00 0.00 0.00 99 1004.9
20260507042356 51 299 0.0 1.0 0.00 0.00 0.00 98 1004.9
20260507041852 51 304 1.0 1.0 0.00 0.00 0.00 98 1005.2
20260507041349 52 295 0.0 0.0 0.00 0.00 0.00 98 1005.2
20260507040846 52 296 0.0 2.0 0.00 0.00 0.00 98 1005.1
20260507040342 52 287 1.0 1.0 0.00 0.00 0.00 98 1005.3
20260507035838 52 308 2.0 2.0 0.07 0.23 0.23 97 1005.3
20260507035333 52 291 0.0 1.0 0.07 0.23 0.23 97 1005.1
20260507034832 53 296 1.0 2.0 0.00 0.22 0.22 97 1005.3
20260507034328 53 251 0.0 2.0 0.05 0.22 0.22 97 1004.9
20260507033826 53 204 3.0 5.0 0.12 0.22 0.22 96 1005.1
20260507033324 54 254 1.0 1.0 0.12 0.21 0.21 96 1005.0
20260507032821 54 284 0.0 2.0 0.05 0.20 0.20 95 1005.1
20260507032317 55 251 2.0 5.0 0.00 0.19 0.19 94 1004.9
20260507031814 55 241 1.0 5.0 0.00 0.19 0.19 94 1004.9
20260507031310 56 228 2.0 5.0 0.00 0.19 0.19 94 1004.4
20260507030806 56 305 1.0 3.0 0.00 0.19 0.19 94 1004.3
20260507030305 56 249 1.0 2.0 0.00 0.19 0.19 94 1004.2
20260507025801 56 236 2.0 2.0 0.00 0.19 0.19 95 1004.2
20260507025258 57 236 2.0 3.0 0.00 0.19 0.19 94 1004.1
20260507024756 57 259 1.0 1.0 0.00 0.19 0.19 94 1004.4
20260507024253 58 246 0.0 5.0 0.00 0.19 0.19 93 1004.6
20260507023749 58 237 3.0 3.0 0.00 0.19 0.19 93 1004.3
20260507023246 58 236 2.0 2.0 0.00 0.19 0.19 93 1004.3
20260507022743 58 241 1.0 3.0 0.00 0.19 0.19 93 1004.4
20260507022239 59 246 0.0 2.0 0.00 0.19 0.19 94 1004.5
20260507021736 59 244 1.0 2.0 0.00 0.19 0.19 95 1004.2
20260507021231 59 209 2.0 3.0 0.00 0.19 0.19 95 1004.2
20260507020730 59 236 1.0 2.0 0.00 0.19 0.19 95 1004.4
20260507020226 59 240 0.0 1.0 0.00 0.19 0.19 95 1004.1
20260507015723 59 244 1.0 2.0 0.00 0.19 0.19 95 1004.3
20260507015221 59 257 1.0 1.0 0.00 0.19 0.19 95 1004.1
20260507014717 59 240 1.0 5.0 0.00 0.19 0.19 96 1004.4
20260507014214 59 200 1.0 2.0 0.00 0.19 0.19 96 1004.4
20260507013710 59 273 0.0 1.0 0.00 0.19 0.19 96 1004.2
20260507013208 59 213 2.0 2.0 0.00 0.19 0.19 95 1004.2
20260507012705 59 255 0.0 1.0 0.00 0.19 0.19 95 1004.4
20260507012200 59 247 0.0 2.0 0.00 0.19 0.19 95 1004.3
20260507011658 59 237 1.0 3.0 0.00 0.19 0.19 95 1004.4
20260507011154 59 168 4.0 6.0 0.00 0.19 0.19 95 1004.4
20260507010649 59 177 3.0 7.0 0.00 0.19 0.19 95 1004.4
20260507010145 59 169 4.0 7.0 0.00 0.19 0.19 95 1004.3
20260507005643 59 162 4.0 7.0 0.00 0.19 0.19 95 1004.4
20260507005138 59 184 2.0 7.0 0.00 0.19 0.19 94 1004.3
20260507004636 59 170 3.0 8.0 0.00 0.19 0.19 94 1004.3
20260507004133 59 200 4.0 5.0 0.00 0.19 0.19 94 1004.2
20260507003630 59 173 7.0 9.0 0.00 0.19 0.19 94 1004.4
20260507003129 59 239 0.0 8.0 0.00 0.19 0.19 95 1004.1
20260507002626 59 169 6.0 8.0 0.00 0.19 0.19 95 1004.2
20260507002122 59 251 0.0 9.0 0.00 0.19 0.19 94 1004.3
20260507001619 59 241 0.0 5.0 0.00 0.19 0.19 94 1004.1
20260507001117 60 237 2.0 5.0 0.00 0.19 0.19 94 1004.3
20260507000613 60 175 4.0 8.0 0.00 0.19 0.19 93 1004.0
20260507000114 60 207 5.0 13.0 0.00 0.19 0.19 93 1004.0
20260506235611 60 175 5.0 13.0 0.00 0.19 0.19 93 1004.1
20260506235111 60 182 5.0 10.0 0.00 0.19 0.19 93 1004.0
20260506234609 60 171 5.0 9.0 0.00 0.19 0.19 93 1004.0
20260506234106 60 230 7.0 13.0 0.00 0.19 0.19 93 1004.0
20260506233603 60 171 7.0 10.0 0.00 0.19 0.19 93 1003.9
20260506233100 60 170 5.0 13.0 0.00 0.19 0.19 93 1003.8
20260506232556 60 166 4.0 9.0 0.00 0.19 0.19 93 1003.9
20260506232056 60 198 5.0 10.0 0.00 0.19 0.19 93 1003.8
20260506231554 60 178 8.0 10.0 0.00 0.19 0.19 94 1003.9
20260506231052 60 191 3.0 9.0 0.00 0.19 0.19 94 1003.9
20260506230548 60 174 5.0 10.0 0.00 0.19 0.19 94 1004.0
20260506230046 60 209 4.0 13.0 0.00 0.19 0.19 94 1004.2
20260506225542 60 215 2.0 7.0 0.00 0.19 0.19 94 1003.8
20260506225038 60 174 6.0 9.0 0.00 0.19 0.19 94 1003.9
20260506224536 60 200 4.0 7.0 0.00 0.19 0.19 94 1004.0
20260506224032 60 183 6.0 11.0 0.00 0.19 0.19 94 1004.2
20260506223528 60 173 6.0 10.0 0.00 0.19 0.19 94 1004.2
20260506223025 60 183 2.0 9.0 0.00 0.19 0.19 95 1004.1
20260506222522 60 159 7.0 11.0 0.00 0.19 0.19 94 1004.3
20260506222018 60 168 4.0 8.0 0.00 0.19 0.19 95 1004.1
20260506221515 60 167 5.0 11.0 0.00 0.19 0.19 95 1004.4
20260506221013 60 233 1.0 3.0 0.00 0.19 0.19 97 1004.4
20260506220509 60 174 3.0 7.0 0.00 0.19 0.19 97 1004.3
20260506220005 60 216 2.0 7.0 0.00 0.19 0.19 97 1004.3
20260506215502 60 234 3.0 7.0 0.00 0.19 0.19 97 1004.5
20260506214957 60 199 2.0 6.0 0.00 0.19 0.19 97 1004.6
20260506214454 60 192 2.0 6.0 0.00 0.19 0.19 97 1004.8
20260506213952 60 177 6.0 9.0 0.07 0.19 0.19 97 1004.6
20260506213450 60 175 3.0 3.0 0.07 0.19 0.19 96 1004.8
20260506212947 60 191 4.0 9.0 0.00 0.18 0.18 96 1004.8
20260506212442 60 180 3.0 11.0 0.00 0.18 0.18 96 1005.0
20260506211943 59 163 3.0 7.0 0.00 0.18 0.18 98 1004.9
20260506211439 59 178 4.0 7.0 0.00 0.18 0.18 99 1004.9
20260506210936 59 248 0.0 3.0 0.00 0.18 0.18 99 1005.2
20260506210433 59 230 1.0 2.0 0.00 0.18 0.18 99 1005.2
20260506205930 59 213 1.0 1.0 0.05 0.18 0.18 99 1005.2
20260506205426 59 219 0.0 1.0 0.05 0.18 0.18 99 1005.4
20260506204922 59 219 0.0 2.0 0.07 0.17 0.17 99 1005.3
20260506204420 59 219 0.0 1.0 0.05 0.16 0.16 98 1005.5
20260506203917 59 219 0.0 2.0 0.00 0.15 0.15 98 1005.6
20260506203414 59 220 1.0 2.0 0.00 0.15 0.15 98 1005.5
20260506202911 60 225 0.0 0.0 0.07 0.15 0.15 98 1005.2
20260506202408 60 225 0.0 0.0 0.07 0.15 0.15 98 1005.3
20260506201905 60 225 0.0 0.0 0.05 0.14 0.14 97 1005.3
20260506201402 60 224 0.0 1.0 0.12 0.14 0.14 97 1005.3
20260506200859 60 210 2.0 5.0 0.07 0.13 0.13 96 1005.4
20260506200355 60 172 4.0 7.0 0.05 0.12 0.12 96 1005.5
20260506195851 60 231 1.0 5.0 0.05 0.12 0.12 96 1005.3
20260506195349 60 251 0.0 2.0 0.07 0.11 0.11 96 1005.4
20260506194845 60 191 3.0 6.0 0.12 0.11 0.11 95 1005.6
20260506194342 60 165 4.0 10.0 0.05 0.10 0.10 94 1005.7
20260506193840 60 179 4.0 9.0 0.00 0.09 0.09 93 1005.8
20260506193336 60 172 4.0 9.0 0.00 0.09 0.09 94 1005.6
20260506192833 61 169 5.0 7.0 0.00 0.09 0.09 93 1005.9
20260506192330 61 163 5.0 9.0 0.00 0.09 0.09 93 1005.9
20260506191827 61 166 5.0 10.0 0.00 0.09 0.09 94 1006.1
20260506191323 61 177 5.0 13.0 0.00 0.09 0.09 94 1006.0
20260506190820 60 171 3.0 7.0 0.00 0.09 0.09 95 1005.8
20260506190316 61 167 5.0 8.0 0.07 0.09 0.09 95 1005.9
20260506185813 61 174 4.0 6.0 0.07 0.09 0.09 94 1005.9
20260506185310 60 215 2.0 6.0 0.00 0.08 0.08 94 1006.0
20260506184807 61 188 2.0 5.0 0.00 0.08 0.08 94 1006.3
20260506184305 61 175 3.0 9.0 0.07 0.08 0.08 92 1006.2
20260506183801 61 189 3.0 3.0 0.07 0.08 0.08 93 1006.3
20260506183257 61 168 4.0 7.0 0.00 0.07 0.07 93 1006.5
20260506182754 61 193 1.0 7.0 0.05 0.07 0.07 92 1006.5
20260506182251 61 202 4.0 6.0 0.07 0.06 0.06 93 1006.5
20260506181749 61 193 2.0 6.0 0.07 0.06 0.06 93 1006.6
20260506181246 61 239 1.0 6.0 0.05 0.05 0.05 93 1006.6
20260506180743 61 233 1.0 2.0 0.17 0.05 0.05 93 1006.6
20260506180239 62 234 3.0 3.0 0.19 0.04 0.04 93 1006.7
20260506175736 62 225 3.0 5.0 0.07 0.02 0.02 91 1006.7
20260506175233 62 252 1.0 1.0 0.00 0.01 0.01 91 1006.6
20260506174730 63 241 0.0 3.0 0.00 0.01 0.01 90 1006.1
20260506174227 64 190 2.0 5.0 0.05 0.01 0.01 81 1006.1
20260506173725 64 246 2.0 3.0 0.00 0.00 0.00 81 1006.3
20260506173221 65 185 3.0 3.0 0.00 0.00 0.00 79 1006.1
20260506172718 66 175 4.0 6.0 0.00 0.00 0.00 75 1006.0
20260506172215 66 216 2.0 6.0 0.00 0.00 0.00 75 1006.2
20260506171712 66 233 2.0 8.0 0.00 0.00 0.00 74 1006.1
20260506171210 66 194 3.0 8.0 0.00 0.00 0.00 75 1006.1
20260506170707 66 175 3.0 5.0 0.00 0.00 0.00 75 1006.2
20260506170204 66 185 7.0 9.0 0.00 0.00 0.00 74 1006.4
20260506165702 66 187 3.0 6.0 0.00 0.00 0.00 75 1006.4
20260506165158 66 207 1.0 6.0 0.00 0.00 0.00 75 1006.3
20260506164655 66 216 1.0 5.0 0.00 0.00 0.00 76 1006.8
20260506164153 65 170 4.0 7.0 0.00 0.00 0.00 76 1006.7
20260506163649 65 222 1.0 3.0 0.00 0.00 0.00 77 1006.8
20260506163144 65 206 0.0 2.0 0.00 0.00 0.00 76 1006.8
20260506162641 65 249 0.0 1.0 0.00 0.00 0.00 76 1007.1
20260506162138 65 191 3.0 3.0 0.00 0.00 0.00 77 1007.5
20260506161635 64 242 0.0 1.0 0.00 0.00 0.00 78 1007.5
20260506161132 65 285 0.0 1.0 0.00 0.00 0.00 77 1007.7
20260506160630 65 194 2.0 5.0 0.00 0.00 0.00 77 1007.9
20260506160126 64 230 1.0 3.0 0.00 0.00 0.00 77 1007.9
20260506155625 65 214 2.0 3.0 0.00 0.00 0.00 77 1008.0
20260506155122 64 175 5.0 6.0 0.00 0.00 0.00 78 1008.2
20260506153224 64 174 3.0 6.0 0.00 0.00 0.00 78 1008.2
20260506152721 64 172 4.0 5.0 0.00 0.00 0.00 77 1008.2
20260506152218 64 246 3.0 7.0 0.00 0.00 0.00 77 1008.2
20260506151717 64 235 2.0 3.0 0.00 0.00 0.00 77 1008.1
20260506151213 64 297 1.0 2.0 0.00 0.00 0.00 78 1008.3
20260506150709 64 205 1.0 3.0 0.00 0.00 0.00 78 1008.4
20260506150207 64 210 2.0 5.0 0.00 0.00 0.00 79 1008.3
20260506145704 63 232 1.0 5.0 0.00 0.00 0.00 79 1008.2
20260506145200 63 215 2.0 3.0 0.00 0.00 0.00 79 1008.1
20260506144658 63 181 4.0 6.0 0.00 0.00 0.00 78 1008.1
20260506144154 63 174 5.0 6.0 0.00 0.00 0.00 79 1008.3
20260506143652 63 180 4.0 7.0 0.00 0.00 0.00 79 1007.9
20260506143150 63 201 3.0 5.0 0.00 0.00 0.00 79 1008.1
20260506142648 63 178 3.0 5.0 0.00 0.00 0.00 80 1008.1
20260506142146 63 172 5.0 6.0 0.00 0.00 0.00 79 1007.8
20260506141643 63 177 3.0 3.0 0.00 0.00 0.00 80 1008.1
20260506141141 62 197 1.0 8.0 0.00 0.00 0.00 79 1008.2
20260506140639 62 225 3.0 7.0 0.00 0.00 0.00 80 1008.2
20260506140136 62 170 5.0 6.0 0.00 0.00 0.00 80 1008.2
20260506135633 62 227 1.0 3.0 0.00 0.00 0.00 79 1008.3
20260506135129 62 171 2.0 3.0 0.00 0.00 0.00 80 1008.4
20260506134626 62 178 3.0 3.0 0.00 0.00 0.00 80 1008.4
20260506134121 62 195 1.0 2.0 0.00 0.00 0.00 80 1008.3
20260506133619 62 266 0.0 2.0 0.00 0.00 0.00 81 1008.5
20260506133116 62 197 0.0 1.0 0.00 0.00 0.00 81 1008.5
20260506132613 61 186 2.0 5.0 0.00 0.00 0.00 80 1008.5
20260506132110 61 198 1.0 3.0 0.00 0.00 0.00 80 1008.5
20260506131607 61 198 2.0 3.0 0.00 0.00 0.00 81 1008.5
20260506131103 61 208 1.0 5.0 0.00 0.00 0.00 81 1008.9
20260506130600 61 247 2.0 6.0 0.00 0.00 0.00 81 1008.8
20260506130058 61 236 1.0 5.0 0.00 0.00 0.00 81 1008.6
20260506125556 61 182 1.0 3.0 0.00 0.00 0.00 81 1008.4
20260506125054 61 192 1.0 2.0 0.00 0.00 0.00 80 1008.3
20260506124551 61 174 3.0 6.0 0.00 0.00 0.00 80 1008.4
20260506124049 61 174 1.0 3.0 0.00 0.00 0.00 81 1008.5
20260506123546 61 176 3.0 3.0 0.00 0.00 0.00 80 1008.6
20260506123045 60 177 4.0 6.0 0.00 0.00 0.00 80 1008.7
20260506122541 60 203 1.0 2.0 0.00 0.00 0.00 81 1008.6
20260506122039 60 225 1.0 3.0 0.00 0.00 0.00 81 1008.7
20260506121536 60 195 0.0 2.0 0.00 0.00 0.00 82 1008.7
20260506121032 59 254 1.0 2.0 0.00 0.00 0.00 82 1008.6
20260506120530 59 299 0.0 1.0 0.00 0.00 0.00 84 1008.8
20260506120028 59 300 0.0 1.0 0.00 0.00 0.00 86 1008.8
20260506115526 59 300 0.0 0.0 0.00 0.00 0.00 87 1008.9
20260506115024 58 300 1.0 1.0 0.00 0.00 0.00 88 1008.8
20260506114521 57 300 0.0 0.0 0.00 0.00 0.00 89 1008.9
20260506114019 58 300 0.0 1.0 0.00 0.00 0.00 88 1008.8
20260506113517 58 300 0.0 0.0 0.00 0.00 0.00 88 1008.9
20260506113014 58 300 0.0 0.0 0.00 0.00 0.00 88 1009.1
20260506112510 58 300 0.0 0.0 0.00 0.00 0.00 87 1009.1
20260506112008 57 292 1.0 1.0 0.00 0.00 0.00 90 1009.3
20260506111506 55 280 1.0 1.0 0.00 0.00 0.00 92 1009.2
20260506111002 55 279 1.0 1.0 0.00 0.00 0.00 94 1009.3
20260506110500 55 278 0.0 1.0 0.00 0.00 0.00 94 1009.5
20260506105956 55 278 0.0 0.0 0.00 0.00 0.00 93 1009.3
20260506105453 55 278 0.0 0.0 0.00 0.00 0.00 93 1009.5
20260506104950 55 275 0.0 0.0 0.00 0.00 0.00 94 1009.3
20260506104448 54 275 0.0 0.0 0.00 0.00 0.00 94 1009.6
20260506103947 54 275 0.0 1.0 0.00 0.00 0.00 94 1009.4
20260506103443 54 275 0.0 0.0 0.00 0.00 0.00 94 1009.3
20260506102940 54 275 0.0 0.0 0.00 0.00 0.00 94 1009.1
20260506102438 54 275 0.0 1.0 0.00 0.00 0.00 94 1009.2
20260506101935 54 275 0.0 0.0 0.00 0.00 0.00 94 1009.1
20260506101431 54 275 0.0 0.0 0.00 0.00 0.00 94 1009.1
20260506100929 54 276 0.0 0.0 0.00 0.00 0.00 94 1008.9
20260506100427 55 276 0.0 1.0 0.00 0.00 0.00 93 1008.7
20260506095925 55 266 1.0 1.0 0.00 0.00 0.00 93 1008.6
20260506095423 55 265 0.0 0.0 0.00 0.00 0.00 93 1008.7
20260506094919 55 266 0.0 0.0 0.00 0.00 0.00 93 1009.1
20260506094418 55 266 0.0 0.0 0.00 0.00 0.00 93 1008.8
20260506093915 55 266 0.0 0.0 0.00 0.00 0.00 92 1008.7
20260506093413 55 266 0.0 0.0 0.00 0.00 0.00 92 1008.8
20260506092910 55 266 0.0 0.0 0.00 0.00 0.00 92 1008.8
20260506092408 55 266 0.0 0.0 0.00 0.00 0.00 92 1009.1
20260506091904 55 266 0.0 0.0 0.00 0.00 0.00 92 1009.1
20260506091402 55 266 0.0 1.0 0.00 0.00 0.00 93 1008.9
20260506090859 55 259 0.0 1.0 0.00 0.00 0.00 92 1008.9
20260506090357 55 239 1.0 2.0 0.00 0.00 0.00 91 1008.9
20260506085854 56 232 0.0 0.0 0.00 0.00 0.00 91 1008.9
20260506085350 56 260 0.0 0.0 0.00 0.00 0.00 91 1008.8
20260506084846 56 259 1.0 1.0 0.00 0.00 0.00 89 1008.7
20260506084343 57 260 0.0 0.0 0.00 0.00 0.00 87 1008.8
20260506083840 57 260 0.0 0.0 0.00 0.00 0.00 88 1008.6
20260506083338 57 260 0.0 0.0 0.00 0.00 0.00 88 1009.2
20260506082835 58 261 0.0 0.0 0.00 0.00 0.00 84 1008.7
20260506082331 57 261 0.0 0.0 0.00 0.00 0.00 86 1008.6
20260506081827 57 260 0.0 0.0 0.00 0.00 0.00 88 1008.7
20260506081326 57 260 0.0 0.0 0.00 0.00 0.00 88 1008.6
20260506080823 58 260 0.0 0.0 0.00 0.00 0.00 85 1008.6
20260506080319 58 337 1.0 1.0 0.00 0.00 0.00 83 1008.6
20260506073303 58 253 0.0 1.0 0.00 0.00 0.00 84 1008.6
20260506072800 59 252 0.0 0.0 0.00 0.00 0.00 84 1008.7
20260506072257 59 252 0.0 0.0 0.00 0.00 0.00 84 1008.7
20260506071755 59 252 0.0 0.0 0.00 0.00 0.00 82 1008.6
20260506071253 59 252 0.0 1.0 0.00 0.00 0.00 82 1008.4
20260506070750 60 252 0.0 0.0 0.00 0.00 0.00 81 1008.5
20260506070247 60 252 0.0 0.0 0.00 0.00 0.00 78 1008.6
20260506062224 61 197 2.0 5.0 0.00 0.00 0.00 77 1008.0
20260506061720 61 267 0.0 1.0 0.00 0.00 0.00 78 1008.0
20260506061217 61 199 1.0 1.0 0.00 0.00 0.00 78 1007.9
20260506060716 61 192 3.0 3.0 0.00 0.00 0.00 79 1008.3
20260506060212 61 212 0.0 1.0 0.00 0.00 0.00 79 1007.8
20260506051144 62 205 0.0 3.0 0.00 0.00 0.00 79 1008.2